When you browse on this site, cookies collect data to enhance your experience and personalize the content and advertising you see.
Visit our Privacy Policy to learn more. By continuing to use the site, you agree to this use of cookies and data.
  • In Romania
  • List of Countries
  • For 7 days
  • Water Temperature
  • Satellite Maps
  • Weather Map
  • Weather Widgets
  • user-avatar
    Login

    Hourly Weather Elbasan

    Today, 10 December, Monday

    Time Temperature Precipitation Wind Pressure Humidity
    00:00 +8°C° 0.5 mm 3 mps 728 mmHg 86%
    01:00 +8°C° 0 mm 4 mps 727 mmHg 85%
    02:00 +8°C° 0.9 mm 3 mps 727 mmHg 88%
    03:00 +8°C° 0.9 mm 3 mps 727 mmHg 91%
    04:00 +8°C° 0.9 mm 2 mps 726 mmHg 93%
    05:00 +8°C° 0.3 mm 3 mps 727 mmHg 93%
    06:00 +8°C° 0.3 mm 3 mps 727 mmHg 93%
    07:00 +7°C° 0 mm 3 mps 728 mmHg 92%
    08:00 +8°C° 0.1 mm 3 mps 728 mmHg 86%
    09:00 +9°C° 0.1 mm 3 mps 729 mmHg 79%
    10:00 +10°C° 0.1 mm 3 mps 729 mmHg 73%
    11:00 +10°C° 0 mm 3 mps 729 mmHg 68%
    12:00 +11°C° 0 mm 3 mps 730 mmHg 62%
    13:00 +11°C° 0 mm 3 mps 730 mmHg 57%
    14:00 +10°C° 0.1 mm 2 mps 730 mmHg 62%
    15:00 +9°C° 0.1 mm 2 mps 730 mmHg 66%
    16:00 +8°C° 0.1 mm 2 mps 730 mmHg 71%
    17:00 +8°C° 0 mm 2 mps 730 mmHg 73%
    18:00 +7°C° 0 mm 2 mps 731 mmHg 76%
    19:00 +6°C° 0 mm 2 mps 731 mmHg 78%
    20:00 +6°C° 0 mm 2 mps 731 mmHg 78%
    21:00 +5°C° 0 mm 2 mps 732 mmHg 78%
    22:00 +5°C° 0 mm 2 mps 732 mmHg 78%
    23:00 +5°C° 0 mm 2 mps 732 mmHg 78%

    Tomorrow, 11 December, Tuesday

    Time Temperature Precipitation Wind Pressure Humidity
    00:00 +5°C° 0 mm 2 mps 732 mmHg 79%
    01:00 +4°C° 0 mm 2 mps 733 mmHg 79%
    02:00 +4°C° 0 mm 2 mps 733 mmHg 79%
    03:00 +4°C° 0 mm 2 mps 733 mmHg 79%
    04:00 +4°C° 0 mm 2 mps 732 mmHg 80%
    05:00 +4°C° 0 mm 2 mps 733 mmHg 80%
    06:00 +4°C° 0 mm 2 mps 733 mmHg 80%
    07:00 +3°C° 0 mm 2 mps 733 mmHg 80%
    08:00 +4°C° 0 mm 2 mps 733 mmHg 74%
    09:00 +6°C° 0 mm 2 mps 734 mmHg 69%
    10:00 +7°C° 0 mm 2 mps 734 mmHg 64%
    11:00 +7°C° 0 mm 2 mps 734 mmHg 59%
    12:00 +7°C° 0 mm 2 mps 734 mmHg 55%
    13:00 +8°C° 0 mm 2 mps 734 mmHg 51%
    14:00 +7°C° 0 mm 2 mps 734 mmHg 54%
    15:00 +6°C° 0 mm 2 mps 734 mmHg 57%
    16:00 +5°C° 0 mm 2 mps 734 mmHg 60%
    17:00 +5°C° 0 mm 2 mps 734 mmHg 62%
    18:00 +5°C° 0 mm 1 mps 735 mmHg 64%
    19:00 +4°C° 0 mm 1 mps 735 mmHg 66%
    20:00 +4°C° 0 mm 1 mps 735 mmHg 66%
    21:00 +4°C° 0 mm 1 mps 735 mmHg 67%
    22:00 +4°C° 0 mm 1 mps 736 mmHg 68%
    23:00 +4°C° 0 mm 1 mps 736 mmHg 67%

    Day after tomorrow, 12 December, Wednesday

    Time Temperature Precipitation Wind Pressure Humidity
    00:00 +4°C° 0 mm 1 mps 736 mmHg 66%
    01:00 +4°C° 0 mm 1 mps 736 mmHg 65%
    02:00 +4°C° 0 mm 1 mps 736 mmHg 64%
    03:00 +3°C° 0 mm 1 mps 736 mmHg 63%
    04:00 +3°C° 0 mm 1 mps 736 mmHg 62%
    05:00 +3°C° 0 mm 1 mps 736 mmHg 60%
    06:00 +3°C° 0 mm 1 mps 737 mmHg 58%
    07:00 +3°C° 0 mm 1 mps 737 mmHg 57%
    08:00 +4°C° 0 mm 1 mps 737 mmHg 49%
    09:00 +5°C° 0 mm 1 mps 738 mmHg 42%
    10:00 +7°C° 0 mm 1 mps 738 mmHg 34%
    11:00 +7°C° 0 mm 1 mps 738 mmHg 33%
    12:00 +8°C° 0 mm 1 mps 737 mmHg 31%
    13:00 +8°C° 0 mm 1 mps 737 mmHg 29%
    14:00 +7°C° 0 mm 1 mps 737 mmHg 34%
    15:00 +6°C° 0 mm 1 mps 737 mmHg 38%
    16:00 +5°C° 0 mm 1 mps 737 mmHg 42%
    17:00 +5°C° 0 mm 1 mps 737 mmHg 42%
    18:00 +4°C° 0 mm 1 mps 737 mmHg 43%
    19:00 +3°C° 0 mm 2 mps 738 mmHg 43%
    20:00 +3°C° 0 mm 2 mps 738 mmHg 43%
    21:00 +3°C° 0 mm 2 mps 738 mmHg 43%
    22:00 +3°C° 0 mm 2 mps 737 mmHg 42%
    23:00 +3°C° 0 mm 2 mps 737 mmHg 42%

    13 December, Thursday

    Time Temperature Precipitation Wind Pressure Humidity
    00:00 +3°C° 0 mm 2 mps 737 mmHg 42%
    01:00 +3°C° 0 mm 3 mps 736 mmHg 42%
    02:00 +3°C° 0.1 mm 3 mps 736 mmHg 45%
    03:00 +3°C° 0.1 mm 3 mps 735 mmHg 47%
    04:00 +3°C° 0.1 mm 3 mps 735 mmHg 50%
    05:00 +3°C° 0.2 mm 3 mps 734 mmHg 56%
    06:00 +3°C° 0.2 mm 3 mps 734 mmHg 62%
    07:00 +3°C° 0.2 mm 4 mps 734 mmHg 68%
    08:00 +3°C° 0.5 mm 3 mps 733 mmHg 72%
    09:00 +3°C° 0.5 mm 3 mps 733 mmHg 75%
    10:00 +3°C° 0.5 mm 3 mps 733 mmHg 79%
    11:00 +4°C° 0.5 mm 3 mps 732 mmHg 80%
    12:00 +4°C° 0.5 mm 3 mps 732 mmHg 80%
    13:00 +4°C° 0.5 mm 3 mps 732 mmHg 80%
    14:00 +4°C° 0.2 mm 3 mps 732 mmHg 81%
    15:00 +4°C° 0.2 mm 3 mps 732 mmHg 82%
    16:00 +5°C° 0.2 mm 2 mps 732 mmHg 83%
    17:00 +5°C° 0.1 mm 2 mps 732 mmHg 84%
    18:00 +6°C° 0.1 mm 2 mps 732 mmHg 85%
    19:00 +6°C° 0.1 mm 2 mps 732 mmHg 86%
    20:00 +6°C° 0 mm 2 mps 733 mmHg 88%
    21:00 +6°C° 0 mm 2 mps 733 mmHg 89%
    22:00 +6°C° 0 mm 2 mps 733 mmHg 91%
    23:00 +6°C° 0 mm 2 mps 733 mmHg 91%

    14 December, Friday

    Time Temperature Precipitation Wind Pressure Humidity
    00:00 +6°C° 0 mm 2 mps 734 mmHg 91%
    01:00 +6°C° 0 mm 2 mps 734 mmHg 90%
    02:00 +6°C° 0 mm 2 mps 734 mmHg 90%
    03:00 +6°C° 0 mm 2 mps 734 mmHg 89%
    04:00 +6°C° 0 mm 2 mps 734 mmHg 88%
    05:00 +6°C° 0 mm 2 mps 735 mmHg 87%
    06:00 +6°C° 0 mm 2 mps 735 mmHg 87%
    07:00 +6°C° 0 mm 2 mps 735 mmHg 86%
    08:00 +8°C° 0 mm 2 mps 736 mmHg 84%
    09:00 +9°C° 0 mm 2 mps 736 mmHg 82%
    10:00 +10°C° 0 mm 2 mps 737 mmHg 81%
    11:00 +12°C° 0 mm 2 mps 737 mmHg 78%
    12:00 +13°C° 0 mm 2 mps 737 mmHg 76%
    13:00 +13°C° 0 mm 2 mps 737 mmHg 74%
    14:00 +12°C° 0 mm 2 mps 737 mmHg 77%
    15:00 +10°C° 0 mm 2 mps 737 mmHg 80%
    16:00 +9°C° 0 mm 2 mps 737 mmHg 82%
    17:00 +9°C° 0 mm 2 mps 738 mmHg 83%
    18:00 +8°C° 0 mm 2 mps 738 mmHg 83%
    19:00 +7°C° 0 mm 2 mps 738 mmHg 83%
    20:00 +7°C° 0 mm 2 mps 739 mmHg 83%
    21:00 +7°C° 0 mm 2 mps 739 mmHg 82%
    22:00 +7°C° 0 mm 2 mps 739 mmHg 82%
    23:00 +7°C° 0 mm 2 mps 739 mmHg 83%

    15 December, Saturday

    Time Temperature Precipitation Wind Pressure Humidity
    00:00 +7°C° 0 mm 2 mps 739 mmHg 83%
    01:00 +6°C° 0 mm 2 mps 739 mmHg 83%
    02:00 +6°C° 0 mm 2 mps 739 mmHg 83%
    03:00 +6°C° 0 mm 2 mps 740 mmHg 83%
    04:00 +6°C° 0 mm 2 mps 740 mmHg 83%
    05:00 +6°C° 0 mm 2 mps 740 mmHg 84%
    06:00 +6°C° 0 mm 2 mps 740 mmHg 84%
    07:00 +6°C° 0 mm 2 mps 740 mmHg 84%
    08:00 +8°C° 0 mm 2 mps 741 mmHg 81%
    09:00 +9°C° 0 mm 2 mps 741 mmHg 79%
    10:00 +10°C° 0 mm 2 mps 741 mmHg 76%
    11:00 +12°C° 0 mm 2 mps 741 mmHg 74%
    12:00 +13°C° 0 mm 2 mps 741 mmHg 71%
    13:00 +13°C° 0 mm 2 mps 741 mmHg 69%
    14:00 +13°C° 0 mm 2 mps 741 mmHg 72%
    15:00 +12°C° 0 mm 2 mps 741 mmHg 76%
    16:00 +10°C° 0 mm 2 mps 741 mmHg 79%
    17:00 +9°C° 0 mm 2 mps 741 mmHg 80%
    18:00 +8°C° 0 mm 2 mps 741 mmHg 81%
    19:00 +8°C° 0 mm 2 mps 741 mmHg 82%
    20:00 +8°C° 0 mm 2 mps 742 mmHg 82%
    21:00 +7°C° 0 mm 2 mps 742 mmHg 83%
    22:00 +7°C° 0 mm 2 mps 742 mmHg 83%
    23:00 +7°C° 0 mm 2 mps 742 mmHg 83%
    Show more